• In Russia
  • List of Countries
  • For 7 days
  • Water Temperature
  • Satellite Maps
  • Weather Map
  • Weather Widgets
  • user-avatar
    Login

    Hourly Weather Khulna

    Today, 18 December, Tuesday

    Time Temperature Precipitation Wind Pressure Humidity
    00:00 +20°C° 0 mm 4 mps 761 mmHg 86%
    01:00 +20°C° 0.2 mm 3 mps 761 mmHg 87%
    02:00 +20°C° 0.2 mm 3 mps 760 mmHg 88%
    03:00 +20°C° 0.2 mm 3 mps 760 mmHg 88%
    04:00 +20°C° 0.8 mm 3 mps 760 mmHg 89%
    05:00 +20°C° 0.8 mm 4 mps 760 mmHg 90%
    06:00 +20°C° 0 mm 4 mps 760 mmHg 85%
    07:00 +20°C° 0.1 mm 4 mps 760 mmHg 84%
    08:00 +20°C° 0.1 mm 4 mps 761 mmHg 83%
    09:00 +20°C° 0.1 mm 4 mps 761 mmHg 82%
    10:00 +20°C° 0.2 mm 4 mps 761 mmHg 82%
    11:00 +20°C° 0.2 mm 4 mps 760 mmHg 82%
    12:00 +19°C° 0 mm 4 mps 760 mmHg 80%
    13:00 +19°C° 0.2 mm 4 mps 760 mmHg 81%
    14:00 +19°C° 0.2 mm 4 mps 760 mmHg 82%
    15:00 +18°C° 0.2 mm 4 mps 759 mmHg 83%
    16:00 +18°C° 0 mm 4 mps 759 mmHg 84%
    17:00 +17°C° 0 mm 3 mps 759 mmHg 85%
    18:00 +19°C° 0 mm 1 mps 759 mmHg 90%
    19:00 +19°C° 0 mm 1 mps 760 mmHg 91%
    20:00 +17°C° 0 mm 2 mps 760 mmHg 92%
    21:00 +17°C° 0 mm 2 mps 760 mmHg 93%
    22:00 +17°C° 0 mm 3 mps 760 mmHg 93%
    23:00 +16°C° 0 mm 3 mps 760 mmHg 93%

    Tomorrow, 19 December, Wednesday

    Time Temperature Precipitation Wind Pressure Humidity
    00:00 +16°C° 0 mm 3 mps 760 mmHg 94%
    01:00 +16°C° 0 mm 3 mps 760 mmHg 94%
    02:00 +16°C° 0 mm 3 mps 760 mmHg 94%
    03:00 +16°C° 0 mm 3 mps 760 mmHg 94%
    04:00 +15°C° 0 mm 2 mps 760 mmHg 95%
    05:00 +15°C° 0 mm 2 mps 761 mmHg 95%
    06:00 +15°C° 0 mm 2 mps 761 mmHg 96%
    07:00 +16°C° 0 mm 2 mps 761 mmHg 90%
    08:00 +18°C° 0 mm 3 mps 762 mmHg 84%
    09:00 +19°C° 0 mm 3 mps 762 mmHg 78%
    10:00 +21°C° 0 mm 3 mps 762 mmHg 71%
    11:00 +24°C° 0 mm 3 mps 762 mmHg 63%
    12:00 +26°C° 0 mm 3 mps 762 mmHg 55%
    13:00 +26°C° 0 mm 3 mps 761 mmHg 53%
    14:00 +27°C° 0 mm 3 mps 761 mmHg 51%
    15:00 +27°C° 0 mm 3 mps 760 mmHg 49%
    16:00 +26°C° 0 mm 3 mps 760 mmHg 54%
    17:00 +24°C° 0 mm 3 mps 760 mmHg 60%
    18:00 +23°C° 0 mm 2 mps 761 mmHg 66%
    19:00 +21°C° 0 mm 2 mps 761 mmHg 67%
    20:00 +20°C° 0 mm 2 mps 762 mmHg 69%
    21:00 +20°C° 0 mm 2 mps 762 mmHg 71%
    22:00 +19°C° 0 mm 2 mps 762 mmHg 71%
    23:00 +19°C° 0 mm 2 mps 762 mmHg 71%

    Day after tomorrow, 20 December, Thursday

    Time Temperature Precipitation Wind Pressure Humidity
    00:00 +18°C° 0 mm 2 mps 762 mmHg 71%
    01:00 +18°C° 0 mm 2 mps 762 mmHg 72%
    02:00 +18°C° 0 mm 2 mps 762 mmHg 72%
    03:00 +17°C° 0 mm 2 mps 761 mmHg 73%
    04:00 +17°C° 0 mm 2 mps 761 mmHg 74%
    05:00 +17°C° 0 mm 2 mps 761 mmHg 75%
    06:00 +16°C° 0 mm 2 mps 761 mmHg 76%
    07:00 +18°C° 0 mm 2 mps 762 mmHg 70%
    08:00 +20°C° 0 mm 3 mps 762 mmHg 64%
    09:00 +21°C° 0 mm 3 mps 763 mmHg 59%
    10:00 +24°C° 0 mm 3 mps 762 mmHg 53%
    11:00 +25°C° 0 mm 3 mps 762 mmHg 47%
    12:00 +27°C° 0 mm 3 mps 762 mmHg 41%
    13:00 +27°C° 0 mm 3 mps 761 mmHg 40%
    14:00 +28°C° 0 mm 3 mps 760 mmHg 39%
    15:00 +28°C° 0 mm 3 mps 759 mmHg 37%
    16:00 +26°C° 0 mm 3 mps 759 mmHg 42%
    17:00 +25°C° 0 mm 2 mps 759 mmHg 47%
    18:00 +23°C° 0 mm 2 mps 759 mmHg 51%
    19:00 +21°C° 0 mm 2 mps 760 mmHg 53%
    20:00 +21°C° 0 mm 2 mps 760 mmHg 55%
    21:00 +21°C° 0 mm 1 mps 760 mmHg 58%
    22:00 +20°C° 0 mm 2 mps 760 mmHg 59%
    23:00 +19°C° 0 mm 2 mps 760 mmHg 60%

    21 December, Friday

    Time Temperature Precipitation Wind Pressure Humidity
    00:00 +19°C° 0 mm 2 mps 760 mmHg 61%
    01:00 +18°C° 0 mm 2 mps 760 mmHg 62%
    02:00 +18°C° 0 mm 2 mps 759 mmHg 63%
    03:00 +18°C° 0 mm 2 mps 759 mmHg 64%
    04:00 +17°C° 0 mm 2 mps 759 mmHg 65%
    05:00 +17°C° 0 mm 2 mps 760 mmHg 66%
    06:00 +17°C° 0 mm 2 mps 760 mmHg 67%
    07:00 +18°C° 0 mm 2 mps 761 mmHg 62%
    08:00 +20°C° 0 mm 2 mps 761 mmHg 58%
    09:00 +23°C° 0 mm 2 mps 762 mmHg 53%
    10:00 +24°C° 0 mm 2 mps 762 mmHg 49%
    11:00 +26°C° 0 mm 3 mps 761 mmHg 44%
    12:00 +27°C° 0 mm 3 mps 761 mmHg 40%
    13:00 +27°C° 0 mm 3 mps 760 mmHg 38%
    14:00 +28°C° 0 mm 3 mps 759 mmHg 37%
    15:00 +28°C° 0 mm 3 mps 758 mmHg 35%
    16:00 +26°C° 0 mm 3 mps 759 mmHg 39%
    17:00 +25°C° 0 mm 2 mps 759 mmHg 43%
    18:00 +23°C° 0 mm 2 mps 759 mmHg 48%
    19:00 +21°C° 0 mm 2 mps 759 mmHg 49%
    20:00 +21°C° 0 mm 2 mps 760 mmHg 50%
    21:00 +20°C° 0 mm 2 mps 760 mmHg 51%
    22:00 +20°C° 0 mm 2 mps 760 mmHg 52%
    23:00 +19°C° 0 mm 2 mps 760 mmHg 52%

    22 December, Saturday

    Time Temperature Precipitation Wind Pressure Humidity
    00:00 +19°C° 0 mm 2 mps 760 mmHg 52%
    01:00 +18°C° 0 mm 2 mps 760 mmHg 53%
    02:00 +18°C° 0 mm 2 mps 760 mmHg 54%
    03:00 +17°C° 0 mm 2 mps 759 mmHg 55%
    04:00 +17°C° 0 mm 2 mps 759 mmHg 56%
    05:00 +17°C° 0 mm 2 mps 760 mmHg 57%
    06:00 +17°C° 0 mm 2 mps 760 mmHg 58%
    07:00 +18°C° 0 mm 3 mps 761 mmHg 57%
    08:00 +20°C° 0 mm 3 mps 761 mmHg 55%
    09:00 +22°C° 0 mm 3 mps 762 mmHg 54%
    10:00 +24°C° 0 mm 3 mps 762 mmHg 49%
    11:00 +26°C° 0 mm 4 mps 761 mmHg 45%
    12:00 +27°C° 0 mm 4 mps 761 mmHg 41%
    13:00 +28°C° 0 mm 4 mps 760 mmHg 39%
    14:00 +28°C° 0 mm 4 mps 760 mmHg 38%
    15:00 +28°C° 0 mm 4 mps 759 mmHg 36%
    16:00 +27°C° 0 mm 3 mps 759 mmHg 40%
    17:00 +25°C° 0 mm 3 mps 760 mmHg 45%
    18:00 +23°C° 0 mm 2 mps 760 mmHg 49%
    19:00 +23°C° 0 mm 2 mps 760 mmHg 52%
    20:00 +21°C° 0 mm 2 mps 761 mmHg 54%
    21:00 +20°C° 0 mm 2 mps 761 mmHg 56%
    22:00 +20°C° 0 mm 2 mps 761 mmHg 58%
    23:00 +19°C° 0 mm 2 mps 761 mmHg 60%

    23 December, Sunday

    Time Temperature Precipitation Wind Pressure Humidity
    00:00 +19°C° 0 mm 2 mps 761 mmHg 61%
    01:00 +18°C° 0 mm 2 mps 760 mmHg 63%
    02:00 +18°C° 0 mm 2 mps 760 mmHg 66%
    03:00 +17°C° 0 mm 3 mps 760 mmHg 68%
    04:00 +17°C° 0 mm 3 mps 760 mmHg 69%
    05:00 +17°C° 0 mm 3 mps 760 mmHg 70%
    06:00 +16°C° 0 mm 3 mps 760 mmHg 72%
    07:00 +18°C° 0 mm 3 mps 761 mmHg 66%
    08:00 +19°C° 0 mm 3 mps 762 mmHg 60%
    09:00 +21°C° 0 mm 3 mps 762 mmHg 54%
    10:00 +24°C° 0 mm 3 mps 762 mmHg 48%
    11:00 +25°C° 0 mm 3 mps 761 mmHg 42%
    12:00 +27°C° 0 mm 3 mps 761 mmHg 36%
    13:00 +28°C° 0 mm 3 mps 760 mmHg 34%
    14:00 +28°C° 0 mm 3 mps 760 mmHg 32%
    15:00 +29°C° 0 mm 3 mps 759 mmHg 31%
    16:00 +27°C° 0 mm 3 mps 759 mmHg 35%
    17:00 +25°C° 0 mm 3 mps 759 mmHg 40%
    18:00 +23°C° 0 mm 2 mps 760 mmHg 44%
    19:00 +21°C° 0 mm 2 mps 760 mmHg 46%
    20:00 +21°C° 0 mm 2 mps 760 mmHg 49%
    21:00 +20°C° 0 mm 2 mps 760 mmHg 51%
    22:00 +19°C° 0 mm 2 mps 760 mmHg 52%
    23:00 +19°C° 0 mm 2 mps 760 mmHg 54%
    Show more